Regional Weather Roundup
Issued by NWS State College, PA

Home | Current Version | Previous Version | Graphics & Text | Print | Product List | Glossary Off
Versions: 1 2 3 4 5 6 7 8 9 10 11 12 13 14 15 16 17 18 19 20 21 22 23 24 25 26 27 28 29 30 31 32 33 34 35 36 37 38 39 40 41 42 43 44 45 46 47 48 49 50

000
ASUS41 KCTP 191303
RWRCTP

REGIONAL WEATHER ROUNDUP
NATIONAL WEATHER SERVICE STATE COLLEGE PA
800 AM EST MON FEB 19 2018

Note: "fair" indicates few or no clouds below 12,000 feet with no
significant weather and/or obstructions to visibility.

* = STATION THAT DOES NOT REPORT PRECIPITATION /E.G. RAIN...SNOW...ETC/
    THUNDER OR FOG.

PAZ002>004-007>009-013>016-020>023-029>032-191400-
WESTERN PENNSYLVANIA

CITY           SKY/WX    TMP DP  RH WIND       PRES   REMARKS
ERIE           LGT RAIN  43  31  62 S16G28    30.10F
MEADVILLE      LGT RAIN  40  32  73 VRB6      30.16R
FRANKLIN*      CLOUDY    38  30  73 S3        30.19R
NEW CASTLE     CLOUDY    43  33  68 CALM      30.19R
BEAVER COUNTY  CLOUDY    39  32  75 SE7       30.16R
BUTLER*        CLOUDY    44  36  73 SE5       30.19R
PITTSBURGH INT CLOUDY    43  35  73 SE6       30.16R
PITTSBURGH     CLOUDY    44  33  65 S7        30.18R
INDIANA*       CLOUDY    41  37  87 S9G16     30.26R
LATROBE        CLOUDY    48  41  76 S9        30.22R
WASHINGTON CO* CLOUDY    48  41  76 S8        30.21R
$$

PAZ004>006-010>012-017>019-024>028-033>037-041-042-045-046-049>053-191400-
CENTRAL PENNSYLVANIA

CITY           SKY/WX    TMP DP  RH WIND       PRES   REMARKS
BRADFORD       MOCLDY    34  29  82 S7        30.21R
DUBOIS         CLOUDY    37  29  72 SE8       30.21R
CLEARFIELD     CLOUDY    34  30  85 CALM      30.27R
JOHNSTOWN      LGT RAIN  35  33  92 S16       30.23S FOG
ALTOONA        CLOUDY    37  32  82 S10       30.31S
STATE COLLEGE  CLOUDY    37  30  75 SW10      30.32S
WILLIAMSPORT   CLOUDY    37  30  75 SE15G26   30.38S
SELINSGROVE    CLOUDY    37  29  72 S8        30.42S
FT INDIANTOWN  CLOUDY    34  34 100 CALM      30.45S
CAPITAL CITY   CLOUDY    40  33  76 SE6       30.45R
HARRISBURG     CLOUDY    38  32  79 SE8       30.45R
YORK           CLOUDY    38  34  85 S3        30.44S
$$

PAZ038>040-043-044-047-048-054-055-060>062-067>071-191400-
EASTERN PENNSYLVANIA

CITY           SKY/WX    TMP DP  RH WIND       PRES   REMARKS
SCRANTON       PTSUNNY   35  26  69 VRB5      30.42R
MOUNT POCONO   NOT AVBL
ALLENTOWN      CLOUDY    32  25  75 CALM      30.49R
QUAKERTOWN*    MOSUNNY   28  27  93 CALM      30.49R
READING        CLOUDY    37  30  75 SE3       30.47R
LANCASTER      CLOUDY    36  32  85 SE6       30.47R
COATESVILLE    FAIR      36 N/A N/A S5        30.48S
POTTSTOWN      FAIR      35  30  82 S5        30.51R
BLUE BELL      FAIR      36  32  87 CALM      30.51S
DOYLESTOWN     FAIR      35  30  82 CALM      30.48S
WILLOW GROVE   NOT AVBL
NORTH PHILA    FAIR      38  32  79 E3        30.52R
PHILADELPHIA   PTSUNNY   38  33  82 CALM      30.52R
$$




USA.gov is the U.S. government's official web portal to all federal, state and local government web resources and services.